Time,TemperatureF,DewpointF,PressureIn,WindDirection,WindDirectionDegrees,WindSpeedMPH,WindSpeedGustMPH,Humidity,HourlyPrecipIn,Conditions,Clouds,dailyrainin,SoftwareType,DateUTC
2013-02-22 09:20:00,70.0,70.0,29.84,South,180,0.0,6.0,100,0.00,,,0.00,Weather View 32 v70,2013-02-22 14:20:00,
2013-02-22 09:25:00,71.0,71.0,29.84,ESE,112,4.0,6.0,100,0.00,,,0.00,Weather View 32 v70,2013-02-22 14:25:00,
2013-02-22 09:30:00,72.0,71.1,29.84,South,180,1.0,6.0,97,0.00,,,0.00,Weather View 32 v70,2013-02-22 14:30:00,
2013-02-22 09:35:00,73.0,72.1,29.83,SW,225,1.0,6.0,97,0.00,,,0.00,Weather View 32 v70,2013-02-22 14:35:00,
2013-02-22 09:40:00,74.0,72.5,29.83,SSW,202,2.0,7.0,95,0.00,,,0.00,Weather View 32 v70,2013-02-22 14:40:00,
2013-02-22 09:45:00,74.0,72.2,29.82,ESE,112,1.0,7.0,94,0.00,,,0.00,Weather View 32 v70,2013-02-22 14:45:00,
2013-02-22 09:50:00,75.0,72.5,29.82,South,180,0.0,7.0,92,0.00,,,0.00,Weather View 32 v70,2013-02-22 14:50:00,
2013-02-22 09:55:00,75.0,69.8,29.82,ESE,112,3.0,7.0,84,0.00,,,0.00,Weather View 32 v70,2013-02-22 14:55:00,
2013-02-22 10:00:00,75.0,70.2,29.82,South,180,0.0,7.0,85,0.00,,,0.00,Weather View 32 v70,2013-02-22 15:00:00,
2013-02-22 10:05:00,76.0,70.4,29.82,ESE,112,3.0,7.0,83,0.00,,,0.00,Weather View 32 v70,2013-02-22 15:05:00,
2013-02-22 10:10:00,76.0,69.7,29.82,ESE,112,1.0,7.0,81,0.00,,,0.00,Weather View 32 v70,2013-02-22 15:10:00,
2013-02-22 10:15:00,76.0,69.7,29.82,East,90,1.0,8.0,81,0.00,,,0.00,Weather View 32 v70,2013-02-22 15:15:00,
2013-02-22 10:20:00,76.0,70.4,29.82,East,90,1.0,8.0,83,0.00,,,0.00,Weather View 32 v70,2013-02-22 15:20:00,
2013-02-22 10:30:00,76.0,70.8,29.81,SW,225,0.0,8.0,84,0.00,,,0.00,Weather View 32 v70,2013-02-22 15:30:00,
2013-02-22 10:38:00,76.0,70.8,29.81,SW,225,0.0,8.0,84,0.00,,,0.00,Weather View 32 v70,2013-02-22 15:38:00,
2013-02-22 10:45:00,78.0,69.4,29.81,East,90,5.0,112.0,75,0.00,,,0.00,Weather View 32 v70,2013-02-22 15:45:00,
2013-02-22 10:50:00,78.0,70.2,29.81,East,90,2.0,112.0,77,0.00,,,0.00,Weather View 32 v70,2013-02-22 15:50:00,
2013-02-22 10:55:00,79.0,70.0,29.81,East,90,6.0,112.0,74,0.00,,,0.00,Weather View 32 v70,2013-02-22 15:55:00,
2013-02-22 11:05:00,78.0,69.8,29.80,East,90,2.0,112.0,76,0.00,,,0.00,Weather View 32 v70,2013-02-22 16:05:00,
2013-02-22 11:15:00,78.0,69.8,29.81,SE,135,5.0,112.0,76,0.00,,,0.00,Weather View 32 v70,2013-02-22 16:15:00,
2013-02-22 11:20:00,78.0,70.2,29.81,East,90,6.0,112.0,77,0.00,,,0.00,Weather View 32 v70,2013-02-22 16:20:00,
2013-02-22 11:30:00,79.0,69.6,29.80,East,90,4.0,112.0,73,0.00,,,0.00,Weather View 32 v70,2013-02-22 16:30:00,
2013-02-22 11:35:00,78.0,69.4,29.79,East,90,4.0,112.0,75,-1.80,,,0.00,Weather View 32 v70,2013-02-22 16:35:00,
2013-02-22 11:40:00,78.0,69.8,29.79,East,90,1.0,112.0,76,-9.00,,,0.00,Weather View 32 v70,2013-02-22 16:40:00,
2013-02-22 11:45:00,79.0,70.4,29.79,East,90,6.0,13.0,75,0.00,,,0.00,Weather View 32 v70,2013-02-22 16:45:00,
2013-02-22 11:50:00,79.0,69.6,29.79,East,90,3.0,13.0,73,0.00,,,0.00,Weather View 32 v70,2013-02-22 16:50:00,
2013-02-22 12:00:00,79.0,68.8,29.78,SSE,157,2.0,15.0,71,0.00,,,0.00,Weather View 32 v70,2013-02-22 17:00:00,
2013-02-22 12:05:00,79.0,70.0,29.78,East,90,4.0,15.0,74,0.00,,,0.00,Weather View 32 v70,2013-02-22 17:05:00,
2013-02-22 12:10:00,79.0,69.6,29.78,NNE,22,6.0,15.0,73,0.00,,,0.00,Weather View 32 v70,2013-02-22 17:10:00,
2013-02-22 12:15:00,79.0,70.0,29.78,East,90,5.0,15.0,74,0.00,,,0.00,Weather View 32 v70,2013-02-22 17:15:00,
2013-02-22 12:20:00,78.0,69.4,29.78,East,90,5.0,15.0,75,0.00,,,0.00,Weather View 32 v70,2013-02-22 17:20:00,
2013-02-22 12:30:00,78.0,69.8,29.78,ESE,112,5.0,15.0,76,0.00,,,0.00,Weather View 32 v70,2013-02-22 17:30:00,
2013-02-22 12:35:00,79.0,70.0,29.77,East,90,1.0,15.0,74,0.00,,,0.00,Weather View 32 v70,2013-02-22 17:35:00,
2013-02-22 12:40:00,79.0,70.0,29.77,ESE,112,4.0,15.0,74,0.00,,,0.00,Weather View 32 v70,2013-02-22 17:40:00,
2013-02-22 12:50:00,79.0,70.0,29.77,East,90,5.0,15.0,74,0.00,,,0.00,Weather View 32 v70,2013-02-22 17:50:00,
2013-02-22 12:55:00,80.0,70.9,29.76,ESE,112,3.0,15.0,74,0.00,,,0.00,Weather View 32 v70,2013-02-22 17:55:00,
2013-02-22 13:00:00,81.0,70.7,29.76,SE,135,5.0,15.0,71,0.00,,,0.00,Weather View 32 v70,2013-02-22 18:00:00,
2013-02-22 13:05:00,80.0,70.1,29.75,SE,135,1.0,11.0,72,0.00,,,0.00,Weather View 32 v70,2013-02-22 18:05:00,
2013-02-22 13:15:00,78.0,69.8,29.76,East,90,2.0,12.0,76,0.00,,,0.00,Weather View 32 v70,2013-02-22 18:15:00,
2013-02-22 13:20:00,79.0,70.8,29.76,SE,135,1.0,12.0,76,0.00,,,0.00,Weather View 32 v70,2013-02-22 18:20:00,
2013-02-22 13:25:00,79.0,69.6,29.75,East,90,4.0,12.0,73,0.00,,,0.00,Weather View 32 v70,2013-02-22 18:25:00,
2013-02-22 13:30:00,78.0,69.8,29.75,East,90,9.0,13.0,76,0.00,,,0.00,Weather View 32 v70,2013-02-22 18:30:00,
2013-02-22 13:40:00,77.0,70.3,29.76,East,90,2.0,13.0,80,0.00,,,0.00,Weather View 32 v70,2013-02-22 18:40:00,
2013-02-22 13:45:00,77.0,70.7,29.75,East,90,5.0,13.0,81,0.00,,,0.00,Weather View 32 v70,2013-02-22 18:45:00,
2013-02-22 13:50:00,77.0,71.1,29.75,East,90,8.0,13.0,82,0.00,,,0.00,Weather View 32 v70,2013-02-22 18:50:00,
2013-02-22 14:05:00,79.0,70.8,29.75,East,90,0.0,13.0,76,0.00,,,0.00,Weather View 32 v70,2013-02-22 19:05:00,
2013-02-22 14:10:00,79.0,69.2,29.75,East,90,5.0,13.0,72,0.00,,,0.00,Weather View 32 v70,2013-02-22 19:10:00,
2013-02-22 14:20:00,80.0,71.3,29.73,SE,135,3.0,13.0,75,0.00,,,0.00,Weather View 32 v70,2013-02-22 19:20:00,
2013-02-22 14:30:00,78.0,70.6,29.74,East,90,11.0,13.0,78,0.00,,,0.00,Weather View 32 v70,2013-02-22 19:30:00,
2013-02-22 14:35:00,77.0,70.3,29.75,East,90,8.0,13.0,80,0.00,,,0.00,Weather View 32 v70,2013-02-22 19:35:00,
2013-02-22 14:40:00,77.0,70.7,29.75,East,90,6.0,13.0,81,0.00,,,0.00,Weather View 32 v70,2013-02-22 19:40:00,
2013-02-22 14:45:00,78.0,70.9,29.74,ESE,112,3.0,13.0,79,0.00,,,0.00,Weather View 32 v70,2013-02-22 19:45:00,
2013-02-22 14:55:00,78.0,70.2,29.74,East,90,6.0,13.0,77,0.00,,,0.00,Weather View 32 v70,2013-02-22 19:55:00,
2013-02-22 15:00:00,78.0,69.8,29.74,SE,135,5.0,14.0,76,0.00,,,0.00,Weather View 32 v70,2013-02-22 20:00:00,
2013-02-22 15:10:00,79.0,70.0,29.73,East,90,3.0,14.0,74,0.00,,,0.00,Weather View 32 v70,2013-02-22 20:10:00,
2013-02-22 15:15:00,80.0,70.9,29.73,SE,135,2.0,14.0,74,0.00,,,0.00,Weather View 32 v70,2013-02-22 20:15:00,
2013-02-22 15:20:00,79.0,70.0,29.73,ENE,67,2.0,14.0,74,0.00,,,0.00,Weather View 32 v70,2013-02-22 20:20:00,
2013-02-22 15:25:00,79.0,70.0,29.73,ESE,112,2.0,14.0,74,0.00,,,0.00,Weather View 32 v70,2013-02-22 20:25:00,
2013-02-22 15:35:00,79.0,71.5,29.73,East,90,5.0,14.0,78,0.00,,,0.00,Weather View 32 v70,2013-02-22 20:35:00,
2013-02-22 15:40:00,79.0,70.8,29.73,South,180,0.0,14.0,76,0.00,,,0.00,Weather View 32 v70,2013-02-22 20:40:00,
2013-02-22 15:45:00,79.0,70.8,29.73,NNE,22,8.0,14.0,76,0.00,,,0.00,Weather View 32 v70,2013-02-22 20:45:00,
2013-02-22 15:55:00,78.0,71.3,29.73,East,90,5.0,14.0,80,0.00,,,0.00,Weather View 32 v70,2013-02-22 20:55:00,
2013-02-22 16:00:00,78.0,70.9,29.73,East,90,6.0,14.0,79,0.00,,,0.00,Weather View 32 v70,2013-02-22 21:00:00,
2013-02-22 16:05:00,78.0,71.3,29.73,SE,135,3.0,13.0,80,0.00,,,0.00,Weather View 32 v70,2013-02-22 21:05:00,
2013-02-22 16:20:00,77.0,70.7,29.73,East,90,7.0,13.0,81,0.00,,,0.00,Weather View 32 v70,2013-02-22 21:20:00,
2013-02-22 16:25:00,76.0,70.4,29.73,East,90,8.0,13.0,83,0.00,,,0.00,Weather View 32 v70,2013-02-22 21:25:00,
2013-02-22 16:35:00,76.0,71.1,29.74,East,90,1.0,13.0,85,0.00,,,0.00,Weather View 32 v70,2013-02-22 21:35:00,
2013-02-22 16:40:00,76.0,71.1,29.74,East,90,7.0,13.0,85,0.00,,,0.00,Weather View 32 v70,2013-02-22 21:40:00,
2013-02-22 16:45:00,76.0,70.8,29.73,East,90,4.0,13.0,84,0.00,,,0.00,Weather View 32 v70,2013-02-22 21:45:00,
2013-02-22 16:55:00,76.0,70.8,29.73,East,90,4.0,13.0,84,0.00,,,0.00,Weather View 32 v70,2013-02-22 21:55:00,
2013-02-22 17:05:00,75.0,69.8,29.74,East,90,4.0,13.0,84,0.00,,,0.00,Weather View 32 v70,2013-02-22 22:05:00,
2013-02-22 17:10:00,75.0,70.2,29.74,East,90,2.0,13.0,85,0.00,,,0.00,Weather View 32 v70,2013-02-22 22:10:00,
2013-02-22 17:15:00,75.0,70.5,29.74,East,90,4.0,13.0,86,0.00,,,0.00,Weather View 32 v70,2013-02-22 22:15:00,
2013-02-22 17:20:00,75.0,70.5,29.74,SE,135,2.0,13.0,86,0.00,,,0.00,Weather View 32 v70,2013-02-22 22:20:00,
2013-02-22 17:30:00,74.0,69.9,29.74,East,90,5.0,13.0,87,0.00,,,0.00,Weather View 32 v70,2013-02-22 22:30:00,
2013-02-22 17:35:00,74.0,69.9,29.74,East,90,3.0,13.0,87,0.00,,,0.00,Weather View 32 v70,2013-02-22 22:35:00,
2013-02-22 17:45:00,73.0,69.6,29.74,East,90,7.0,13.0,89,0.00,,,0.00,Weather View 32 v70,2013-02-22 22:45:00,
2013-02-22 17:50:00,73.0,70.2,29.74,ESE,112,2.0,11.0,91,0.00,,,0.00,Weather View 32 v70,2013-02-22 22:50:00,
2013-02-22 18:00:00,73.0,70.5,29.75,ESE,112,3.0,11.0,92,0.00,,,0.00,Weather View 32 v70,2013-02-22 23:00:00,
2013-02-22 18:05:00,73.0,70.8,29.75,East,90,5.0,11.0,93,0.00,,,0.00,Weather View 32 v70,2013-02-22 23:05:00,
2013-02-22 18:10:00,72.0,70.2,29.75,ESE,112,4.0,11.0,94,0.00,,,0.00,Weather View 32 v70,2013-02-22 23:10:00,
2013-02-22 18:15:00,72.0,70.2,29.75,East,90,2.0,11.0,94,0.00,,,0.00,Weather View 32 v70,2013-02-22 23:15:00,
2013-02-22 18:25:00,72.0,70.5,29.75,East,90,2.0,11.0,95,0.00,,,0.00,Weather View 32 v70,2013-02-22 23:25:00,
2013-02-22 18:30:00,72.0,70.5,29.75,East,90,3.0,11.0,95,0.00,,,0.00,Weather View 32 v70,2013-02-22 23:30:00,
2013-02-22 18:35:00,72.0,70.5,29.75,ESE,112,0.0,9.0,95,0.00,,,0.00,Weather View 32 v70,2013-02-22 23:35:00,
2013-02-22 18:45:00,72.0,70.8,29.75,East,90,5.0,9.0,96,0.00,,,0.00,Weather View 32 v70,2013-02-22 23:45:00,
2013-02-22 18:50:00,72.0,70.8,29.75,East,90,2.0,9.0,96,0.00,,,0.00,Weather View 32 v70,2013-02-22 23:50:00,
2013-02-22 18:55:00,72.0,70.8,29.75,East,90,7.0,9.0,96,0.00,,,0.00,Weather View 32 v70,2013-02-22 23:55:00,
2013-02-22 19:00:00,72.0,70.8,29.75,East,90,1.0,9.0,96,0.00,,,0.00,Weather View 32 v70,2013-02-23 00:00:00,
2013-02-22 19:10:00,72.0,70.5,29.76,East,90,1.0,9.0,95,0.00,,,0.00,Weather View 32 v70,2013-02-23 00:10:00,
2013-02-22 19:15:00,72.0,70.5,29.76,ESE,112,3.0,9.0,95,0.00,,,0.00,Weather View 32 v70,2013-02-23 00:15:00,
2013-02-22 19:20:00,72.0,70.2,29.76,ESE,112,6.0,9.0,94,0.00,,,0.00,Weather View 32 v70,2013-02-23 00:20:00,
2013-02-22 19:25:00,72.0,70.2,29.76,SE,135,3.0,10.0,94,0.00,,,0.00,Weather View 32 v70,2013-02-23 00:25:00,
2013-02-22 19:30:00,72.0,70.5,29.76,East,90,3.0,10.0,95,0.00,,,0.00,Weather View 32 v70,2013-02-23 00:30:00,
2013-02-22 19:35:00,72.0,70.5,29.77,ESE,112,0.0,10.0,95,0.00,,,0.00,Weather View 32 v70,2013-02-23 00:35:00,
2013-02-22 19:40:00,72.0,70.5,29.77,East,90,2.0,10.0,95,0.00,,,0.00,Weather View 32 v70,2013-02-23 00:40:00,
2013-02-22 19:50:00,72.0,70.5,29.77,ESE,112,4.0,10.0,95,0.00,,,0.00,Weather View 32 v70,2013-02-23 00:50:00,
2013-02-22 19:55:00,72.0,70.5,29.77,SSE,157,6.0,10.0,95,0.00,,,0.00,Weather View 32 v70,2013-02-23 00:55:00,
2013-02-22 20:05:00,72.0,70.8,29.77,SSE,157,2.0,10.0,96,0.00,,,0.00,Weather View 32 v70,2013-02-23 01:05:00,
2013-02-22 20:10:00,72.0,70.8,29.77,East,90,5.0,11.0,96,0.00,,,0.00,Weather View 32 v70,2013-02-23 01:10:00,
2013-02-22 20:15:00,72.0,70.5,29.78,East,90,3.0,11.0,95,0.00,,,0.00,Weather View 32 v70,2013-02-23 01:15:00,
2013-02-22 20:20:00,72.0,70.5,29.78,East,90,6.0,11.0,95,0.00,,,0.00,Weather View 32 v70,2013-02-23 01:20:00,
2013-02-22 20:30:00,72.0,70.8,29.77,ESE,112,4.0,11.0,96,0.00,,,0.00,Weather View 32 v70,2013-02-23 01:30:00,
2013-02-22 20:35:00,72.0,70.8,29.78,SE,135,2.0,11.0,96,0.00,,,0.00,Weather View 32 v70,2013-02-23 01:35:00,
2013-02-22 20:40:00,72.0,70.8,29.78,East,90,3.0,11.0,96,0.00,,,0.00,Weather View 32 v70,2013-02-23 01:40:00,
2013-02-22 20:45:00,72.0,70.8,29.78,East,90,4.0,11.0,96,0.00,,,0.00,Weather View 32 v70,2013-02-23 01:45:00,
2013-02-22 20:50:00,72.0,70.8,29.78,SE,135,4.0,11.0,96,0.00,,,0.00,Weather View 32 v70,2013-02-23 01:50:00,
2013-02-22 21:00:00,72.0,71.1,29.78,East,90,5.0,11.0,97,0.00,,,0.00,Weather View 32 v70,2013-02-23 02:00:00,
2013-02-22 21:05:00,72.0,71.1,29.78,East,90,6.0,11.0,97,0.00,,,0.00,Weather View 32 v70,2013-02-23 02:05:00,
2013-02-22 21:10:00,71.0,70.1,29.78,East,90,2.0,11.0,97,0.00,,,0.00,Weather View 32 v70,2013-02-23 02:10:00,
2013-02-22 21:15:00,71.0,70.1,29.78,East,90,1.0,11.0,97,0.00,,,0.00,Weather View 32 v70,2013-02-23 02:15:00,
2013-02-22 21:20:00,71.0,70.4,29.78,East,90,1.0,9.0,98,0.00,,,0.00,Weather View 32 v70,2013-02-23 02:20:00,
2013-02-22 21:30:00,71.0,70.7,29.79,East,90,3.0,9.0,99,0.00,,,0.00,Weather View 32 v70,2013-02-23 02:30:00,
2013-02-22 21:35:00,71.0,70.7,29.79,East,90,0.0,9.0,99,0.00,,,0.00,Weather View 32 v70,2013-02-23 02:35:00,
2013-02-22 21:40:00,70.0,69.7,29.79,East,90,0.0,9.0,99,0.00,,,0.00,Weather View 32 v70,2013-02-23 02:40:00,
2013-02-22 21:45:00,70.0,69.7,29.79,East,90,0.0,9.0,99,0.00,,,0.00,Weather View 32 v70,2013-02-23 02:45:00,
2013-02-22 21:55:00,70.0,70.0,29.80,East,90,0.0,9.0,100,0.00,,,0.00,Weather View 32 v70,2013-02-23 02:55:00,
2013-02-22 22:05:00,70.0,70.0,29.80,East,90,0.0,6.0,100,0.00,,,0.00,Weather View 32 v70,2013-02-23 03:05:00,
2013-02-22 22:10:00,69.0,68.7,29.80,East,90,0.0,6.0,99,0.00,,,0.00,Weather View 32 v70,2013-02-23 03:10:00,
2013-02-22 22:15:00,69.0,68.7,29.80,East,90,0.0,6.0,99,0.00,,,0.00,Weather View 32 v70,2013-02-23 03:15:00,
2013-02-22 22:25:00,69.0,68.7,29.80,East,90,0.0,4.0,99,0.00,,,0.00,Weather View 32 v70,2013-02-23 03:25:00,
2013-02-22 22:30:00,68.0,67.7,29.80,East,90,0.0,4.0,99,0.00,,,0.00,Weather View 32 v70,2013-02-23 03:30:00,
2013-02-22 22:35:00,68.0,67.7,29.81,East,90,0.0,4.0,99,0.00,,,0.00,Weather View 32 v70,2013-02-23 03:35:00,
2013-02-22 22:45:00,68.0,68.0,29.80,East,90,0.0,4.0,100,0.00,,,0.00,Weather View 32 v70,2013-02-23 03:45:00,
2013-02-22 22:50:00,68.0,68.0,29.80,East,90,0.0,2.0,100,0.00,,,0.00,Weather View 32 v70,2013-02-23 03:50:00,
2013-02-22 22:55:00,68.0,68.0,29.80,East,90,0.0,2.0,100,0.00,,,0.00,Weather View 32 v70,2013-02-23 03:55:00,
2013-02-22 23:05:00,68.0,68.0,29.80,East,90,0.0,1.0,100,0.00,,,0.00,Weather View 32 v70,2013-02-23 04:05:00,
2013-02-22 23:10:00,67.0,67.0,29.80,East,90,0.0,1.0,100,0.00,,,0.00,Weather View 32 v70,2013-02-23 04:10:00,
2013-02-22 23:15:00,68.0,68.0,29.79,East,90,0.0,1.0,100,0.00,,,0.00,Weather View 32 v70,2013-02-23 04:15:00,
2013-02-22 23:20:00,68.0,68.0,29.79,East,90,2.0,2.0,100,0.00,,,0.00,Weather View 32 v70,2013-02-23 04:20:00,
2013-02-22 23:30:00,68.0,68.0,29.79,East,90,0.0,2.0,100,0.00,,,0.00,Weather View 32 v70,2013-02-23 04:30:00,
2013-02-22 23:35:00,68.0,68.0,29.79,East,90,0.0,2.0,100,0.00,,,0.00,Weather View 32 v70,2013-02-23 04:35:00,
2013-02-22 23:40:00,68.0,68.0,29.79,East,90,0.0,2.0,100,0.00,,,0.00,Weather View 32 v70,2013-02-23 04:40:00,
2013-02-22 23:50:00,68.0,68.0,29.79,East,90,0.0,2.0,100,0.00,,,0.00,Weather View 32 v70,2013-02-23 04:50:00,
2013-02-22 23:55:00,68.0,68.0,29.79,East,90,0.0,2.0,100,0.00,,,0.00,Weather View 32 v70,2013-02-23 04:55:00,